Location: Newark
(48.6800°N, 2.9300°W)
Time: 22:25:31
(UTC+00:00)

N. Korean satellite - Visible Passes

Search period start: 13 October 2019 00:00
Search period end: 23 October 2019 00:00
Orbit: 455 x 508 km, 97.2° (Epoch: 13 October)

Date Brightness Start Highest point End Pass type
(mag) Time Alt. Az. Time Alt. Az. Time Alt. Az.
13 Oct 10.3 18:26:51 10° WSW 18:28:21 12° W 18:29:52 10° WNW visible
14 Oct 8.4 05:47:01 10° NNE 05:50:21 37° E 05:53:43 10° SSE visible
14 Oct 9.4 18:00:03 10° SSW 18:02:52 23° W 18:05:41 10° NW visible
15 Oct 9.7 05:22:13 10° NE 05:24:56 20° E 05:27:39 10° SE visible
16 Oct 10.5 04:58:30 10° ENE 04:59:25 11° E 05:00:20 10° ESE visible
17 Oct 10.0 18:18:26 10° SW 18:20:30 15° W 18:22:34 10° NW visible
18 Oct 8.8 05:39:19 10° NNE 05:42:33 31° E 05:45:49 10° SSE visible
18 Oct 9.0 17:52:00 10° SSW 17:55:00 28° W 17:58:03 10° NW visible
19 Oct 9.9 05:14:40 10° NE 05:17:05 17° E 05:19:32 10° SE visible
21 Oct 7.7 05:56:34 10° NNE 06:00:06 50° E 06:03:41 10° S visible
21 Oct 9.8 18:10:08 10° SW 18:12:35 18° W 18:15:04 10° NW visible
22 Oct 9.2 05:31:36 10° NE 05:34:42 26° E 05:37:49 10° SSE visible
22 Oct 8.5 17:43:57 10° SSW 17:47:07 35° W 17:50:21 10° NNW visible
